Location: Alphen
(52.1351°N, 4.6549°E)
Time: 02:08:45
(UTC+00:00)

Cosmos 2369 Rocket - Pass Details

Date: 27 January 2021
Orbit: 830 x 851 km, 71.0° (Epoch: 26 February)

Event Time Altitude Azimuth Distance (km) Brightness Sun altitude
Exits shadow 05:00:20 17° 339° (NNW) 2,013 3.9 -22.6°
Maximum altitude 05:04:37 54° 52° (NE) 1,006 2.8 -22.0°
Drops below altitude 10° 05:10:05 10° 130° (SE) 2,435 5.3 -21.1°
Sets 05:12:34 0° 135° (SE) 3,365 6.1 -20.7°
